FW9892 Weather Reports


Display with metric or nautical units.
time (UTC)temp
F
wind
direction
speed
MPH
gust
MPH
rain 1hr
in
rain 24hr
in
rain mn
in
humidity
%
barometer
mb
20260506194556 48 0 0.0 0.0 0.00 0.57 0.32 82 1011.2
20260506193052 49 0 0.0 4.0 0.00 0.57 0.32 81 1011.1
20260506191605 49 0 0.0 5.0 0.00 0.57 0.32 80 1010.9
20260506190054 50 0 0.0 5.0 0.00 0.57 0.32 79 1010.7
20260506184559 51 360 0.0 5.0 0.00 0.59 0.32 77 1010.6
20260506183057 52 0 0.0 8.0 0.00 0.59 0.32 74 1010.5
20260506181613 53 0 0.0 4.0 0.00 0.59 0.32 73 1010.2
20260506174607 53 360 0.0 5.0 0.00 0.59 0.32 73 1009.8
20260506173055 54 0 0.0 8.0 0.00 0.59 0.32 74 1009.6
20260506171606 54 360 3.0 9.0 0.00 0.59 0.32 74 1009.6
20260506170054 55 360 0.0 8.0 0.00 0.59 0.32 75 1009.3
20260506164558 56 360 1.0 7.0 0.00 0.59 0.32 72 1009.2
20260506163121 56 0 0.0 3.0 0.00 0.59 0.32 72 1009.2
20260506161554 56 0 0.0 4.0 0.00 0.59 0.32 73 1009.1
20260506160056 56 0 0.0 5.0 0.00 0.59 0.32 73 1009.1
20260506154556 56 0 0.0 0.0 0.00 0.59 0.32 76 1009.1
20260506153055 56 0 0.0 0.0 0.00 0.59 0.32 76 1009.1
20260506151556 56 0 0.0 1.0 0.00 0.59 0.32 75 1009.0
20260506150052 56 0 0.0 1.0 0.00 0.59 0.32 76 1009.0
20260506144556 56 0 0.0 0.0 0.00 0.59 0.32 76 1008.8
20260506143057 55 0 0.0 8.0 0.00 0.59 0.32 76 1008.8
20260506141549 56 0 0.0 4.0 0.00 0.59 0.32 77 1008.9
20260506134600 55 0 0.0 0.0 0.00 0.59 0.32 83 1009.0
20260506133056 54 0 0.0 1.0 0.00 0.59 0.32 81 1009.1
20260506131606 54 0 0.0 4.0 0.00 0.59 0.32 82 1009.1
20260506130054 54 0 0.0 0.0 0.00 0.59 0.32 85 1008.9
20260506124548 54 0 0.0 4.0 0.00 0.59 0.32 87 1008.9
20260506123102 53 0 0.0 4.0 0.00 0.59 0.32 86 1008.7
20260506121604 54 5 0.0 4.0 0.00 0.59 0.32 84 1008.6
20260506120050 53 0 0.0 4.0 0.00 0.59 0.32 90 1008.7
20260506114550 52 0 0.0 4.0 0.00 0.59 0.32 87 1008.6
20260506113050 53 0 0.0 4.0 0.00 0.59 0.32 88 1008.6
20260506111552 52 0 0.0 8.0 0.00 0.59 0.32 91 1008.6
20260506104551 51 5 0.0 5.0 0.00 0.59 0.32 94 1008.8
20260506103048 51 0 0.0 5.0 0.00 0.59 0.32 95 1008.9
20260506101618 50 15 1.0 8.0 0.00 0.59 0.32 94 1008.9
20260506100051 50 0 0.0 9.0 0.00 0.59 0.32 95 1008.6
20260506094557 49 0 1.0 6.0 0.00 0.60 0.32 95 1008.6
20260506093051 49 0 1.0 8.0 0.00 0.60 0.32 95 1008.4
20260506091553 49 0 0.0 5.0 0.00 0.60 0.32 95 1008.3
20260506090104 48 360 1.0 9.0 0.00 0.60 0.32 95 1008.2
20260506084603 48 0 1.0 8.0 0.00 0.60 0.32 95 1008.1
20260506083054 48 0 2.0 10.0 0.00 0.59 0.31 95 1007.9
20260506081557 48 0 3.0 10.0 0.00 0.59 0.31 95 1007.9
20260506073056 47 348 2.0 9.0 0.00 0.59 0.30 95 1007.6
20260506071553 47 0 1.0 6.0 0.01 0.59 0.30 95 1007.6
20260506061552 47 0 0.0 5.0 0.02 0.58 0.29 95 1007.4
20260506050114 46 0 0.0 5.0 0.01 0.55 0.26 95 1007.2
20260506044551 46 0 1.0 8.0 0.02 0.55 0.26 95 1007.2
20260506043055 46 360 1.0 10.0 0.01 0.55 0.25 95 1007.2
20260506041558 46 0 0.0 8.0 0.01 0.54 0.25 95 1007.2
20260506040051 46 0 1.0 9.0 0.01 0.54 0.25 95 1007.2
20260506034558 46 0 1.0 7.0 0.01 0.53 0.24 95 1007.2
20260506033048 46 355 1.0 8.0 0.02 0.53 0.24 95 1007.4
20260506031552 47 355 1.0 6.0 0.02 0.52 0.23 95 1007.3
20260506030052 47 0 1.0 10.0 0.03 0.52 0.23 94 1007.4
20260506024550 47 0 0.0 7.0 0.03 0.51 0.22 94 1007.5
20260506023106 47 0 0.0 9.0 0.03 0.51 0.22 95 1007.6
20260506021549 47 0 0.0 5.0 0.03 0.50 0.21 95 1007.7
20260506020055 48 0 0.0 5.0 0.03 0.49 0.20 94 1007.6
20260506014553 48 0 0.0 6.0 0.05 0.49 0.19 95 1007.6
20260506013055 48 360 1.0 8.0 0.05 0.48 0.18 94 1007.6
20260506011551 48 0 1.0 6.0 0.05 0.47 0.17 95 1007.8
20260506010052 49 360 2.0 9.0 0.06 0.46 0.16 95 1007.7
20260506004557 49 0 0.0 5.0 0.04 0.44 0.14 95 1007.8
20260506003052 49 345 1.0 8.0 0.05 0.43 0.13 94 1007.8
20260506001557 49 0 0.0 9.0 0.04 0.41 0.11 94 1007.9
20260506000100 49 0 2.0 9.0 0.03 0.40 0.10 94 1008.1
20260505234552 49 0 1.0 10.0 0.04 0.39 0.09 94 1008.2
20260505233057 49 360 2.0 9.0 0.03 0.37 0.07 95 1008.2
20260505231551 49 360 1.0 8.0 0.04 0.37 0.07 94 1008.3
20260505230118 49 360 1.0 10.0 0.06 0.36 0.06 94 1008.4
20260505224556 49 360 2.0 9.0 0.07 0.34 0.04 94 1008.4
20260505223054 49 360 2.0 9.0 0.09 0.33 0.03 94 1008.5
20260505221559 49 360 3.0 9.0 0.09 0.32 0.02 94 1008.6
20260505220059 49 0 1.0 9.0 0.08 0.29 0.00 94 1008.7
20260505214553 49 360 2.0 8.0 0.08 0.27 0.27 94 1008.8
20260505213055 49 360 4.0 10.0 0.07 0.24 0.24 94 1009.0
20260505211601 49 360 4.0 10.0 0.07 0.22 0.22 94 1008.9
20260505204551 50 0 2.0 8.0 0.07 0.18 0.18 94 1008.9
20260505203106 50 0 1.0 6.0 0.07 0.17 0.17 94 1009.0
20260505201551 50 0 0.0 6.0 0.07 0.14 0.14 94 1008.9
20260505200101 50 0 1.0 6.0 0.07 0.13 0.13 94 1008.8